GW4057 Weather Reports


Display with metric or nautical units.
time (UTC)temp
F
wind
direction
speed
MPH
gust
MPH
rain 1hr
in
rain 24hr
in
rain mn
in
humidity
%
barometer
mb
20260503224204 59 215 8.0 12.0 0.00 0.00 0.00 45 1012.5
20260503223703 59 191 6.0 13.0 0.00 0.00 0.00 45 1012.5
20260503223204 59 258 7.0 13.0 0.00 0.00 0.00 44 1012.5
20260503222704 59 242 5.0 13.0 0.00 0.00 0.00 45 1012.5
20260503222204 58 226 9.0 13.0 0.00 0.00 0.00 46 1012.5
20260503221704 58 256 7.0 13.0 0.00 0.00 0.00 45 1012.5
20260503221204 59 237 7.0 13.0 0.00 0.00 0.00 44 1012.5
20260503220704 59 235 10.0 18.0 0.00 0.00 0.00 44 1012.5
20260503220204 59 184 9.0 18.0 0.00 0.00 0.00 45 1012.5
20260503215204 59 257 10.0 15.0 0.00 0.00 0.00 44 1012.5
20260503214704 59 248 8.0 15.0 0.00 0.00 0.00 44 1012.5
20260503214204 59 252 13.0 15.0 0.00 0.00 0.00 43 1012.5
20260503213704 59 224 6.0 12.0 0.00 0.00 0.00 44 1012.5
20260503213204 59 229 6.0 14.0 0.00 0.00 0.00 44 1012.5
20260503212704 59 276 7.0 14.0 0.00 0.00 0.00 44 1012.5
20260503212204 59 258 9.0 17.0 0.00 0.00 0.00 44 1012.5
20260503211704 59 261 9.0 17.0 0.00 0.00 0.00 43 1012.5
20260503211204 59 254 9.0 17.0 0.00 0.00 0.00 42 1012.5
20260503210704 59 214 6.0 17.0 0.00 0.00 0.00 43 1012.5
20260503210204 59 226 9.0 13.0 0.00 0.00 0.00 42 1012.5
20260503205703 60 226 10.0 14.0 0.00 0.00 0.00 40 1012.5
20260503205204 60 277 6.0 14.0 0.00 0.00 0.00 43 1012.5
20260503204204 61 246 5.0 12.0 0.00 0.00 0.00 42 1012.5
20260503203703 61 248 9.0 13.0 0.00 0.00 0.00 44 1012.5
20260503203204 59 250 7.0 15.0 0.00 0.00 0.00 45 1012.9
20260503202204 61 210 10.0 16.0 0.00 0.00 0.00 42 1012.9
20260503201704 61 248 11.0 16.0 0.00 0.00 0.00 43 1012.9
20260503201204 61 278 9.0 15.0 0.00 0.00 0.00 42 1012.9
20260503200704 60 235 7.0 14.0 0.00 0.00 0.00 43 1013.2
20260503200204 59 296 8.0 20.0 0.00 0.00 0.00 43 1013.2
20260503195704 59 217 3.0 20.0 0.00 0.00 0.00 45 1013.2
20260503195204 59 277 7.0 20.0 0.00 0.00 0.00 43 1013.2
20260503194704 60 254 9.0 14.0 0.00 0.00 0.00 45 1013.2
20260503194203 60 193 11.0 14.0 0.00 0.00 0.00 42 1013.5
20260503193704 59 269 9.0 14.0 0.00 0.00 0.00 43 1013.5
20260503193203 60 262 7.0 14.0 0.00 0.00 0.00 43 1013.5
20260503192704 62 228 10.0 14.0 0.00 0.00 0.00 41 1013.5
20260503192203 60 295 9.0 15.0 0.00 0.00 0.00 42 1013.5
20260503191704 62 257 10.0 15.0 0.00 0.00 0.00 39 1013.9
20260503191204 59 273 7.0 15.0 0.00 0.00 0.00 42 1013.9
20260503190704 59 224 11.0 18.0 0.00 0.00 0.00 41 1013.9
20260503190204 61 233 8.0 18.0 0.00 0.00 0.00 41 1013.9
20260503185704 61 262 12.0 18.0 0.00 0.00 0.00 40 1013.9
20260503185204 61 255 9.0 15.0 0.00 0.00 0.00 42 1013.9
20260503184704 61 269 11.0 17.0 0.00 0.00 0.00 41 1014.2
20260503184204 59 277 5.0 17.0 0.00 0.00 0.00 42 1014.2
20260503183704 61 237 10.0 17.0 0.00 0.00 0.00 43 1014.2
20260503182204 60 284 8.0 14.0 0.00 0.00 0.00 42 1014.2
20260503180704 61 232 10.0 16.0 0.00 0.00 0.00 43 1014.6
20260503180204 60 258 9.0 16.0 0.00 0.00 0.00 45 1014.6
20260503175704 58 281 9.0 15.0 0.00 0.00 0.00 45 1014.6
20260503175204 60 283 7.0 16.0 0.00 0.00 0.00 44 1014.6
20260503174704 58 256 5.0 16.0 0.00 0.00 0.00 47 1014.6
20260503174204 60 235 14.0 16.0 0.00 0.00 0.00 46 1014.9
20260503173704 59 263 6.0 14.0 0.00 0.00 0.00 45 1014.9
20260503173203 59 253 6.0 14.0 0.00 0.00 0.00 45 1014.9
20260503172704 59 253 10.0 14.0 0.00 0.00 0.00 46 1014.9
20260503172204 59 294 9.0 14.0 0.00 0.00 0.00 45 1014.9
20260503171204 59 230 6.0 15.0 0.00 0.00 0.00 45 1015.2
20260503170704 59 316 7.0 16.0 0.00 0.00 0.00 46 1014.9
20260503170204 59 299 6.0 16.0 0.00 0.00 0.00 47 1015.2
20260503160204 56 255 8.0 14.0 0.00 0.00 0.00 45 1015.9
20260503150704 53 254 6.0 15.0 0.00 0.00 0.00 51 1016.3
20260503150204 53 270 10.0 15.0 0.00 0.00 0.00 47 1015.9
20260503140204 49 223 7.0 12.0 0.00 0.01 0.00 52 1016.6
20260503131204 46 248 6.0 10.0 0.00 0.04 0.00 57 1016.6
20260503130705 46 249 6.0 12.0 0.00 0.04 0.00 57 1016.9
20260503120205 39 141 1.0 5.0 0.00 0.05 0.00 81 1016.9
20260503110704 31 103 0.0 0.0 0.00 0.05 0.00 97 1016.3
20260503110204 31 114 0.0 0.0 0.00 0.05 0.00 96 1016.3
20260503090204 31 115 0.0 0.0 0.00 0.06 0.00 95 1016.3
20260503081204 32 126 0.0 0.0 0.00 0.06 0.00 95 1016.3
20260503080704 32 129 0.0 0.0 0.00 0.06 0.00 94 1016.3
20260503080204 32 127 0.0 0.0 0.00 0.07 0.00 94 1016.3
20260503072704 33 144 0.0 0.0 0.00 0.07 0.00 93 1016.3
20260503072205 33 163 0.0 0.0 0.00 0.08 0.00 93 1016.3
20260503071204 33 136 0.0 3.0 0.00 0.08 0.00 93 1016.3
20260503070704 33 106 0.0 3.0 0.00 0.08 0.00 93 1016.3
20260503070204 33 120 1.0 3.0 0.00 0.09 0.00 93 1016.3
20260503060204 34 125 0.0 0.0 0.00 0.09 0.00 88 1016.6
20260503054704 35 112 0.0 0.0 0.00 0.10 0.00 86 1016.6
20260503054205 35 106 0.0 0.0 0.00 0.11 0.00 85 1016.6
20260503053705 35 106 0.0 0.0 0.00 0.11 0.00 85 1016.6
20260503052705 36 114 0.0 0.0 0.00 0.11 0.00 83 1016.6
20260503052205 36 112 0.0 0.0 0.00 0.11 0.00 82 1016.6
20260503051204 37 118 0.0 0.0 0.00 0.11 0.00 80 1016.6
20260503050705 37 118 0.0 0.0 0.00 0.11 0.00 80 1016.6
20260503050204 37 115 0.0 0.0 0.00 0.11 0.00 79 1016.6
20260503045704 37 143 0.0 1.0 0.00 0.11 0.00 79 1016.6
20260503045205 37 143 0.0 1.0 0.00 0.11 0.00 79 1016.6
20260503044705 38 125 0.0 1.0 0.00 0.11 0.00 78 1016.6
20260503044205 38 161 0.0 0.0 0.00 0.11 0.00 77 1016.6
20260503043705 38 162 0.0 0.0 0.00 0.11 0.00 77 1016.6
20260503043205 38 148 0.0 0.0 0.00 0.11 0.00 76 1016.6
20260503042705 39 144 0.0 0.0 0.00 0.11 0.00 76 1016.6
20260503042205 39 133 0.0 0.0 0.00 0.11 0.00 75 1016.6
20260503040704 40 155 0.0 2.0 0.00 0.11 0.00 74 1016.9
20260503040205 40 166 0.0 2.0 0.00 0.11 0.00 74 1016.9
20260503035704 40 179 0.0 2.0 0.00 0.11 0.09 74 1016.9
20260503035205 40 161 1.0 2.0 0.00 0.11 0.09 74 1016.9
20260503034204 40 142 0.0 3.0 0.00 0.11 0.09 74 1016.9
20260503033705 40 171 2.0 3.0 0.00 0.11 0.09 74 1016.9
20260503033204 40 141 0.0 2.0 0.00 0.11 0.09 74 1016.9
20260503032704 40 148 0.0 2.0 0.00 0.11 0.09 74 1016.9
20260503032204 40 197 1.0 2.0 0.00 0.11 0.09 74 1016.9
20260503031705 40 143 0.0 0.0 0.00 0.11 0.09 74 1016.9
20260503031205 40 149 0.0 0.0 0.00 0.11 0.09 73 1016.9
20260503030704 40 148 0.0 0.0 0.00 0.11 0.09 73 1016.9
20260503025204 41 150 0.0 0.0 0.00 0.11 0.09 74 1017.3
20260503024204 41 149 0.0 0.0 0.00 0.11 0.09 74 1017.3
20260503023705 41 149 0.0 0.0 0.00 0.11 0.09 74 1017.3
20260503023205 41 152 0.0 0.0 0.00 0.11 0.09 74 1017.3
20260503022705 41 147 0.0 0.0 0.00 0.11 0.09 73 1017.3
20260503021705 41 142 0.0 0.0 0.00 0.11 0.09 72 1017.3
20260503021204 41 130 0.0 0.0 0.00 0.11 0.09 72 1017.3
20260503020704 41 146 0.0 0.0 0.00 0.11 0.09 72 1017.3
20260503020204 41 142 0.0 0.0 0.00 0.11 0.09 72 1017.3
20260503015704 41 127 0.0 0.0 0.00 0.11 0.09 72 1017.3
20260503015204 41 128 0.0 0.0 0.00 0.11 0.09 72 1017.3
20260503014705 41 114 0.0 0.0 0.00 0.11 0.09 72 1017.3
20260503014205 41 109 0.0 0.0 0.00 0.11 0.09 70 1017.3
20260503013704 41 127 0.0 0.0 0.00 0.11 0.09 70 1017.3
20260503013204 41 144 0.0 0.0 0.00 0.11 0.09 70 1017.3
20260503012704 41 205 0.0 0.0 0.00 0.11 0.09 69 1017.3
20260503012204 41 143 0.0 0.0 0.00 0.11 0.09 69 1017.3
20260503011705 41 73 0.0 0.0 0.00 0.11 0.09 69 1017.3
20260503011204 41 155 0.0 0.0 0.00 0.11 0.09 69 1017.3
20260503010705 41 142 0.0 0.0 0.00 0.11 0.09 69 1017.3
20260503010205 41 144 0.0 0.0 0.00 0.11 0.09 68 1016.9
20260503005204 41 144 0.0 0.0 0.00 0.11 0.09 67 1016.9
20260503004705 41 1 0.0 0.0 0.00 0.11 0.09 67 1016.9
20260503004204 42 148 0.0 0.0 0.00 0.11 0.09 67 1016.9
20260503003704 42 127 0.0 2.0 0.00 0.11 0.09 67 1016.9
20260503003205 42 4 0.0 2.0 0.00 0.11 0.09 66 1016.9
20260503002704 42 46 1.0 2.0 0.00 0.11 0.09 66 1016.9
20260503002204 42 134 0.0 3.0 0.00 0.11 0.09 65 1016.9
20260503001204 42 340 1.0 3.0 0.00 0.11 0.09 66 1016.9
20260503000704 42 219 0.0 3.0 0.00 0.11 0.09 64 1016.9
20260503000204 42 334 2.0 3.0 0.00 0.11 0.09 64 1016.9
20260502235704 42 7 0.0 3.0 0.00 0.11 0.09 64 1016.9
20260502235204 42 2 0.0 3.0 0.00 0.11 0.09 65 1016.9
20260502234704 42 147 0.0 5.0 0.00 0.11 0.09 65 1016.9
20260502234204 42 318 3.0 5.0 0.00 0.11 0.09 64 1016.9
20260502233704 42 8 3.0 5.0 0.00 0.11 0.09 66 1016.9
20260502233204 42 332 1.0 3.0 0.00 0.11 0.09 66 1016.9
20260502232704 43 325 2.0 6.0 0.00 0.11 0.09 65 1016.9
20260502232204 43 316 2.0 6.0 0.00 0.11 0.09 66 1016.9
20260502231704 43 40 1.0 6.0 0.00 0.11 0.09 66 1016.9
20260502231204 43 359 3.0 6.0 0.00 0.11 0.09 66 1016.9
20260502230204 43 298 3.0 6.0 0.00 0.11 0.09 65 1016.9
20260502225704 43 15 2.0 6.0 0.00 0.11 0.09 64 1016.9
20260502225204 43 255 3.0 6.0 0.00 0.11 0.09 65 1016.9